Content
SEND FEEDBACK

Daily
Averages
Monthly
Summary
United States of America

FEDERAL WAY, WASHINGTON


Home > North America > United States > Washington
Elevation: 25 feet     Latitude: 47 15N     Longitude: 122 26W

WEATHER
 
SELECT A DAY
Number of Records: 191,708;   Date Range: 1/1/95 - 7/29/14
 
SHARE

PRINT THIS DATA

[ ← Previous Day ]
WEATHER ALMANAC - JANUARY 31, 2013
[ Next Day → ]
[ °C ]   °F
Weather ElementAverageHighLow
Temperature46.8 °F50 °F (2:53 pm)45 °F (6:53 am)
Dewpoint43.2 °F44.6 °F (9:53 pm)42.1 °F (6:53 am)
Humidity87.4 %93 % (9:53 pm)77 % (2:53 pm)
Barometer30.36 in30.41 in (2:53 am)30.31 in (6:53 pm)
Wind Speed7 mph11.5 mph (1:53 pm)
Weather ElementAverage
Visibility8.9 mi
Wind DirectionS (183.6 °)

Weather ElementTotal
Precipitation0.08 in
Heating Degree Days17.5 (Base 65)
Averaged from 33 records on January 31, 2013
WEATHER CONDITIONS BREAKOUT
WIND DIRECTION BREAKOUT
WEATHER BY HOUR - JANUARY 31, 2013
[ °C ]   °F
Local TimeTemperatureDewpointHumidityBarometerVisibilityWind DirectionWind SpeedGust SpeedPrecipitationEventsConditions
1:53 AM46.9 °F44.1 °F90 %30.40 in10.0 miSW (220°)4.6 mphOvercast
2:53 AM46.0 °F43.0 °F89 %30.41 in10.0 miVariable3.5 mph0.00 inOvercast
3:53 AM46.9 °F43.0 °F86 %30.41 in10.0 miSSW (210°)4.6 mphOvercast
4:53 AM46.9 °F44.1 °F90 %30.39 in10.0 miSouth (180°)5.8 mphOvercast
5:26 AM46.4 °F42.8 °F87 %30.38 in10.0 miSouth (180°)5.8 mphOvercast
5:48 AM46.4 °F42.8 °F87 %30.38 in10.0 miSouth (190°)5.8 mphOvercast
5:53 AM46.0 °F43.0 °F89 %30.39 in10.0 miSouth (190°)5.8 mphOvercast
6:21 AM46.4 °F42.8 °F87 %30.38 in10.0 miSouth (190°)8.1 mphOvercast
6:46 AM46.4 °F42.8 °F87 %30.38 in10.0 miSouth (190°)9.2 mphOvercast
6:53 AM45.0 °F42.1 °F90 %30.39 in10.0 miSouth (190°)9.2 mphOvercast
7:20 AM46.4 °F42.8 °F87 %30.38 in10.0 miSSW (200°)8.1 mphOvercast
7:53 AM46.0 °F42.1 °F86 %30.39 in10.0 miSSW (200°)8.1 mphOvercast
8:25 AM46.4 °F42.8 °F87 %30.38 in10.0 miSSW (210°)6.9 mph0.00 inRainLight Rain
8:53 AM46.0 °F42.1 °F86 %30.38 in10.0 miSSW (200°)5.8 mph0.00 inOvercast
9:14 AM46.4 °F42.8 °F87 %30.38 in10.0 miSouth (190°)8.1 mphOvercast
9:53 AM46.9 °F42.1 °F83 %30.38 in10.0 miSSW (200°)9.2 mph0.01 inRainLight Rain
10:53 AM46.9 °F43.0 °F86 %30.38 in10.0 miSSW (200°)5.8 mph0.02 inRainLight Rain
11:53 AM46.9 °F43.0 °F86 %30.37 in10.0 miSSW (200°)8.1 mph0.00 inOvercast
12:53 PM48.0 °F43.0 °F83 %30.35 in10.0 miSouth (190°)10.4 mphOvercast
1:53 PM48.0 °F43.0 °F83 %30.33 in10.0 miSouth (190°)11.5 mphOvercast
2:53 PM50.0 °F43.0 °F77 %30.32 in10.0 miSouth (190°)9.2 mphMostly Cloudy
3:53 PM48.0 °F42.1 °F80 %30.32 in10.0 miSSW (200°)11.5 mphOvercast
4:53 PM48.0 °F42.1 °F80 %30.32 in10.0 miSSW (200°)6.9 mphOvercast
5:53 PM46.9 °F43.0 °F86 %30.32 in10.0 miSouth (190°)11.5 mphOvercast
6:53 PM46.9 °F43.0 °F86 %30.31 in10.0 miSouth (190°)10.4 mphMostly Cloudy
7:53 PM46.9 °F44.1 °F90 %30.32 in10.0 miSouth (180°)8.1 mphOvercast
8:53 PM46.9 °F44.1 °F90 %30.32 in10.0 miSSW (200°)3.5 mphOvercast
9:53 PM46.4 °F44.6 °F93 %30.32 in7.0 miSouth (180°)5.8 mphOvercast
10:53 PM46.0 °F44.1 °F93 %30.34 in4.0 miSSW (200°)3.5 mph0.01 inOvercast
11:14 PM46.4 °F44.6 °F93 %30.33 in4.0 miSSW (200°)4.6 mph0.01 inOvercast
11:28 PM46.4 °F44.6 °F93 %30.33 in3.0 miSouth (190°)5.8 mph0.01 inRainLight Rain
11:44 PM46.4 °F44.6 °F93 %30.33 in3.0 miSW (220°)4.6 mph0.02 inRainLight Rain
11:53 PM46.4 °F44.6 °F93 %30.33 in3.0 miCalmRainLight Rain
Hourly data recorded from KTIW, located miles away from Federal Way, Washington







STORIES FROM OUR PARTNERS